KB7YYZ Weather Reports


time (UTC)temp
C
wind
direction
speed
KPH
gust
KPH
rain 1hr
cm
rain 24hr
cm
rain mn
cm
humidity
%
barometer
mb
20260903035548 31 80 1.6 1.6 0.00 0.00 0.00 46 1009.0
20260903034527 32 88 0.0 1.6 0.00 0.00 0.00 46 1009.0
20260903033621 32 101 0.0 0.0 0.00 0.00 0.00 45 1008.8
20260903032533 32 233 0.0 0.0 0.00 0.00 0.00 44 1008.8
20260903031552 32 227 0.0 0.0 0.00 0.00 0.00 43 1008.7
20260903030550 32 0.0 0.0 0.00 0.00 0.00 42 1008.5
20260903025551 32 0.0 0.0 0.00 0.00 0.00 42 1008.4
20260903024536 32 0.0 0.0 0.00 0.00 0.00 42 1008.3
20260903023531 33 212 0.0 0.0 0.00 0.00 0.00 42 1008.2
20260903022542 33 248 0.0 1.6 0.00 0.00 0.00 42 1008.2
20260903021542 33 210 0.0 0.0 0.00 0.00 0.00 41 1008.2
20260903020527 33 177 0.0 1.6 0.00 0.00 0.00 41 1008.2
20260903015539 33 207 0.0 1.6 0.00 0.00 0.00 41
20260903014526 33 287 0.0 0.0 0.00 0.00 0.00 41 1008.3
20260903013532 33 175 0.0 1.6 0.00 0.00 0.00 41 1008.1
20260903012530 34 88 0.0 1.6 0.00 0.00 0.00 41 1008.1
20260903011524 34 0.0 0.0 0.00 0.00 0.00 41 1008.0
20260903010526 34 0.0 0.0 0.00 0.00 0.00 40 1007.9
20260903005524 35 253 0.0 0.0 0.00 0.00 0.00 40 1008.0
20260903004523 35 183 1.6 1.6 0.00 0.00 0.00 40 1008.0
20260903003521 35 214 1.6 1.6 0.00 0.00 0.00 40 1008.1
20260903002522 35 0.0 0.0 0.00 0.00 0.00 40 1008.1
20260903001527 35 0.0 0.0 0.00 0.00 0.00 41 1008.1
20260903000540 35 248 0.0 0.0 0.00 0.00 0.00 41 1008.1
20260902235535 35 0.0 0.0 0.00 0.00 0.00 41 1008.1
20260902234546 35 0.0 0.0 0.00 0.00 0.00 41 1008.1
20260902233521 35 315 0.0 1.6 0.00 0.00 0.00 41 1008.1
20260902232525 35 9 0.0 0.0 0.00 0.00 0.00 40 1008.1
20260902231531 35 335 0.0 0.0 0.00 0.00 0.00 40 1008.1
20260902230532 35 14 0.0 1.6 0.00 0.00 0.00 39 1008.3
20260902225604 35 322 0.0 0.0 0.00 0.00 0.00 39 1008.6
20260902224524 35 290 0.0 1.6 0.00 0.00 0.00 39 1008.6
20260902223522 36 273 1.6 1.6 0.00 0.00 0.00 38 1008.7
20260902222548 36 277 0.0 1.6 0.00 0.00 0.00 40 1008.7
20260902221534 36 296 1.6 1.6 0.00 0.00 0.00 40 1008.8
20260902220634 36 308 1.6 3.2 0.00 0.00 0.00 39 1008.9
20260902215520 36 334 3.2 3.2 0.00 0.00 0.00 39 1009.1
20260902214529 36 353 1.6 1.6 0.00 0.00 0.00 38 1009.1
20260902213527 36 290 1.6 1.6 0.00 0.00 0.00 38 1009.0
20260902212526 37 319 1.6 1.6 0.00 0.00 0.00 38 1009.1
20260902211524 37 283 1.6 3.2 0.00 0.00 0.00 38 1009.4
20260902210521 37 341 1.6 1.6 0.00 0.00 0.00 36 1009.6
20260902205519 37 273 1.6 1.6 0.00 0.00 0.00 37 1009.6
20260902204530 36 245 1.6 1.6 0.00 0.00 0.00 38 1009.7
20260902203524 37 279 3.2 4.8 0.00 0.00 0.00 38 1009.8
20260902202534 37 275 3.2 3.2 0.00 0.00 0.00 39 1009.8
20260902201540 36 254 1.6 1.6 0.00 0.00 0.00 38 1009.9
20260902200529 37 263 3.2 3.2 0.00 0.00 0.00 39 1010.1
20260902195551 37 304 3.2 3.2 0.00 0.00 0.00 40 1010.3
20260902194525 37 347 3.2 3.2 0.00 0.00 0.00 40 1010.6
20260902193531 37 269 1.6 3.2 0.00 0.00 0.00 40 1010.9
20260902192540 36 308 3.2 3.2 0.00 0.00 0.00 41 1011.0
20260902191525 36 274 1.6 3.2 0.00 0.00 0.00 41 1011.1
20260902190548 36 256 1.6 3.2 0.00 0.00 0.00 41 1011.3
20260902185546 36 301 3.2 3.2 0.00 0.00 0.00 42 1011.4
20260902184531 36 269 1.6 1.6 0.00 0.00 0.00 42 1011.5
20260902183606 36 270 1.6 1.6 0.00 0.00 0.00 42 1011.6
20260902182522 36 281 1.6 1.6 0.00 0.00 0.00 42 1011.8
20260902181551 36 218 1.6 1.6 0.00 0.00 0.00 42 1011.8
20260902180539 36 272 1.6 1.6 0.00 0.00 0.00 43 1011.9
20260902175527 36 248 1.6 1.6 0.00 0.00 0.00 43 1011.9
20260902174544 35 250 1.6 1.6 0.00 0.00 0.00 44 1012.0
20260902173528 35 344 1.6 1.6 0.00 0.00 0.00 44 1012.1
20260902172521 35 298 1.6 1.6 0.00 0.00 0.00 45 1012.2
20260902171550 35 318 1.6 1.6 0.00 0.00 0.00 45 1012.2
20260902170525 34 349 1.6 1.6 0.00 0.00 0.00 47 1012.2
20260902165536 34 334 1.6 1.6 0.00 0.00 0.00 47 1012.1
20260902164534 33 266 1.6 1.6 0.00 0.00 0.00 47 1012.1
20260902163550 33 215 1.6 1.6 0.00 0.00 0.00 48 1012.1
20260902162546 32 233 0.0 0.0 0.00 0.00 0.00 49 1012.2
20260902161521 32 196 0.0 0.0 0.00 0.00 0.00 49 1012.2
20260902160546 32 187 0.0 1.6 0.00 0.00 0.00 50 1012.1
20260902155531 32 51 0.0 0.0 0.00 0.00 0.00 51 1012.1
20260902154527 31 224 1.6 1.6 0.00 0.00 0.00 51 1012.1
20260902153603 31 147 1.6 1.6 0.00 0.00 0.00 52 1012.1
20260902152538 30 215 1.6 1.6 0.00 0.00 0.00 53 1012.1
20260902151523 30 187 0.0 1.6 0.00 0.00 0.00 53 1012.1
20260902150548 30 143 0.0 1.6 0.00 0.00 0.00 54 1012.1
20260902145523 30 181 0.0 1.6 0.00 0.00 0.00 54 1012.1
20260902144531 29 0.0 0.0 0.00 0.00 0.00 54 1012.1
20260902143530 28 0.0 0.0 0.00 0.00 0.00 54 1012.1
20260902142539 28 0.0 0.0 0.00 0.00 0.00 54 1012.1
20260902141546 27 0.0 0.0 0.00 0.00 0.00 54 1011.9
20260902140523 27 0.0 0.0 0.00 0.00 0.00 54 1011.8
20260902135521 26 0.0 0.0 0.00 0.00 0.00 54 1011.7
20260902134519 26 0.0 0.0 0.00 0.00 0.00 54
20260902133547 26 0.0 0.0 0.00 0.00 0.00 54 1011.6
20260902132522 26 0.0 0.0 0.00 0.00 0.00 54 1011.5
20260902131549 26 0.0 0.0 0.00 0.00 0.00 55 1011.5
20260902130555 26 0.0 0.0 0.00 0.00 0.00 54 1011.3
20260902125540 26 0.0 0.0 0.00 0.00 0.00 54 1011.3
20260902124523 26 0.0 0.0 0.00 0.00 0.00 54 1011.2
20260902123520 26 0.0 0.0 0.00 0.00 0.00 54 1011.1
20260902122525 26 0.0 0.0 0.00 0.00 0.00 54 1011.1
20260902121532 26 0.0 0.0 0.00 0.00 0.00 54 1011.0
20260902120538 26 0.0 0.0 0.00 0.00 0.00 54 1011.0
20260902115520 26 0.0 0.0 0.00 0.00 0.00 54 1010.9
20260902114623 26 0.0 0.0 0.00 0.00 0.00 54 1010.8
20260902113543 26 0.0 0.0 0.00 0.00 0.00 55 1010.8
20260902112548 26 0.0 0.0 0.00 0.00 0.00 55 1010.8
20260902111534 26 0.0 0.0 0.00 0.00 0.00 55 1010.8
20260902110531 26 0.0 0.0 0.00 0.00 0.00 55 1010.8
20260902105528 26 0.0 0.0 0.00 0.00 0.00 55 1010.8
20260902104519 27 0.0 0.0 0.00 0.00 0.00 55 1010.8
20260902103525 27 0.0 0.0 0.00 0.00 0.00 55 1011.0
20260902102545 27 0.0 0.0 0.00 0.00 0.00 55 1011.0
20260902101541 27 0.0 0.0 0.00 0.00 0.00 54 1011.0
20260902100528 27 0.0 0.0 0.00 0.00 0.00 55 1010.8
20260902095543 27 0.0 0.0 0.00 0.00 0.00 55 1010.9
20260902094540 27 0.0 0.0 0.00 0.00 0.00 55 1011.0
20260902093529 27 0.0 0.0 0.00 0.00 0.00 55 1011.0
20260902092535 27 0.0 0.0 0.00 0.00 0.00 55 1010.9
20260902091526 27 0.0 0.0 0.00 0.00 0.00 56 1011.0
20260902090540 27 0.0 0.0 0.00 0.00 0.00 56 1010.9
20260902085520 27 0.0 0.0 0.00 0.00 0.00 56 1010.8
20260902084525 27 0.0 0.0 0.00 0.00 0.00 56 1010.8
20260902083532 27 0.0 0.0 0.00 0.00 0.00 56 1011.0
20260902082542 28 0.0 0.0 0.00 0.00 0.00 56 1010.9
20260902081540 28 0.0 0.0 0.00 0.00 0.00 55 1010.7
20260902080537 28 0.0 0.0 0.00 0.00 0.00 55 1010.6
20260902075543 28 0.0 0.0 0.00 0.00 0.00 55 1010.5
20260902074529 28 0.0 0.0 0.00 0.00 0.00 55 1010.6
20260902073535 28 0.0 0.0 0.00 0.00 0.00 55 1010.6
20260902072529 28 0.0 0.0 0.00 0.00 0.00 55 1010.7
20260902071527 28 0.0 0.0 0.00 0.00 0.00 55 1010.7
20260902070602 28 0.0 0.0 0.00 0.00 0.00 55 1010.6
20260902065523 28 0.0 0.0 0.00 0.00 0.00 55 1010.5
20260902064522 28 0.0 0.0 0.00 0.00 0.00 55 1010.5
20260902063519 28 0.0 0.0 0.00 0.00 0.00 54 1010.4
20260902062605 29 0.0 0.0 0.00 0.00 0.00 54 1010.4
20260902061521 29 0.0 0.0 0.00 0.00 0.00 54 1010.4
20260902060524 29 0.0 0.0 0.00 0.00 0.00 54 1010.4
20260902055529 29 0.0 0.0 0.00 0.00 0.00 54 1010.4
20260902054527 29 0.0 0.0 0.00 0.00 0.00 54 1010.4
20260902053622 29 0.0 0.0 0.00 0.00 0.00 54 1010.4
20260902052549 30 0.0 0.0 0.00 0.00 0.00 53 1010.4
20260902051541 30 0.0 0.0 0.00 0.00 0.00 53 1010.5
20260902050547 30 0.0 0.0 0.00 0.00 0.00 51 1010.5
20260902045525 30 0.0 0.0 0.00 0.00 0.00 50 1010.5
20260902044540 31 0.0 0.0 0.00 0.00 0.00 50 1010.5
20260902043538 31 0.0 0.0 0.00 0.00 0.00 50 1010.5
20260902042530 31 0.0 0.0 0.00 0.00 0.00 49 1010.4
20260902041523 31 0.0 0.0 0.00 0.00 0.00 50 1010.4
20260902040521 31 0.0 0.0 0.00 0.00 0.00 50 1010.3